Precipitable_Water
0.43 0.43 0.44 0.44 0.45 0.45 0.45 0.45 0.45 0.46 0.46 0.45 0.44 0.44 0.44 0.43 0.43 0.42 0.41 0.41 0.40 0.40 0.40 0.39 0.38 0.38 0.38 0.37 0.36 0.35 0.35 0.34 0.33 0.32 0.31 0.30 0.29 0.27 0.27 0.25 0.23 0.21 0.20 0.21 0.22 0.22 0.21 0.22 0.22 0.21 0.21 0.21 0.21 0.21 0.22 0.23 0.23 0.22 0.22 0.22 0.22 0.22 0.22
0.39 0.39 0.39 0.39 0.40 0.40 0.41 0.41 0.42 0.42 0.42 0.41 0.41 0.41 0.41 0.40 0.40 0.39 0.39 0.39 0.38 0.38 0.38 0.37 0.36 0.36 0.35 0.35 0.34 0.33 0.33 0.32 0.31 0.30 0.29 0.28 0.27 0.26 0.25 0.26 0.23 0.22 0.20 0.19 0.21 0.21 0.21 0.21 0.21 0.20 0.21 0.20 0.20 0.20 0.21 0.21 0.21 0.22 0.22 0.22 0.22 0.22 0.22
0.33 0.33 0.34 0.34 0.34 0.34 0.35 0.35 0.36 0.36 0.37 0.37 0.37 0.37 0.37 0.37 0.37 0.36 0.36 0.35 0.35 0.35 0.35 0.34 0.33 0.32 0.33 0.32 0.31 0.30 0.30 0.30 0.29 0.28 0.27 0.26 0.26 0.25 0.25 0.25 0.24 0.22 0.20 0.19 0.19 0.20 0.20 0.20 0.20 0.19 0.19 0.20 0.21 0.21 0.21 0.20 0.20 0.21 0.21 0.22 0.22 0.22 0.22
0.30 0.30 0.30 0.30 0.30 0.31 0.31 0.31 0.32 0.32 0.32 0.33 0.33 0.33 0.34 0.34 0.34 0.34 0.33 0.33 0.32 0.32 0.32 0.31 0.30 0.30 0.30 0.30 0.29 0.28 0.28 0.28 0.27 0.27 0.26 0.26 0.25 0.25 0.24 0.24 0.24 0.23 0.21 0.20 0.19 0.19 0.20 0.20 0.20 0.20 0.20 0.20 0.21 0.21 0.21 0.21 0.21 0.21 0.21 0.21 0.22 0.22 0.22
0.29 0.29 0.29 0.29 0.29 0.29 0.29 0.29 0.29 0.30 0.30 0.30 0.31 0.31 0.31 0.31 0.32 0.31 0.31 0.31 0.31 0.31 0.30 0.30 0.29 0.29 0.29 0.28 0.27 0.27 0.26 0.26 0.26 0.26 0.25 0.24 0.24 0.24 0.24 0.24 0.23 0.23 0.22 0.21 0.19 0.19 0.20 0.21 0.20 0.20 0.20 0.20 0.20 0.20 0.20 0.21 0.21 0.21 0.21 0.21 0.22 0.22 0.22
0.28 0.28 0.28 0.28 0.28 0.28 0.28 0.27 0.27 0.27 0.27 0.27 0.27 0.27 0.27 0.27 0.27 0.27 0.27 0.27 0.27 0.27 0.27 0.27 0.26 0.26 0.26 0.26 0.24 0.24 0.24 0.25 0.24 0.24 0.24 0.23 0.23 0.23 0.23 0.23 0.22 0.22 0.22 0.21 0.20 0.20 0.19 0.20 0.19 0.19 0.19 0.20 0.20 0.19 0.19 0.19 0.20 0.20 0.21 0.21 0.21 0.21 0.22
0.26 0.27 0.27 0.27 0.27 0.27 0.27 0.27 0.27 0.27 0.27 0.27 0.26 0.26 0.26 0.25 0.25 0.25 0.25 0.25 0.25 0.26 0.25 0.25 0.25 0.25 0.25 0.24 0.24 0.24 0.24 0.24 0.24 0.23 0.23 0.23 0.23 0.23 0.22 0.22 0.21 0.21 0.21 0.20 0.20 0.20 0.20 0.19 0.20 0.20 0.19 0.19 0.20 0.19 0.19 0.18 0.18 0.19 0.20 0.20 0.20 0.20 0.21
0.24 0.24 0.25 0.25 0.25 0.26 0.26 0.26 0.26 0.26 0.27 0.27 0.27 0.26 0.25 0.25 0.25 0.25 0.24 0.24 0.24 0.24 0.25 0.25 0.25 0.24 0.24 0.24 0.24 0.24 0.24 0.24 0.23 0.23 0.23 0.23 0.23 0.23 0.22 0.21 0.21 0.21 0.21 0.20 0.20 0.19 0.19 0.20 0.19 0.19 0.20 0.20 0.19 0.18 0.18 0.19 0.19 0.18 0.19 0.19 0.20 0.20 0.20
0.23 0.23 0.23 0.24 0.24 0.24 0.24 0.24 0.24 0.24 0.25 0.25 0.26 0.27 0.26 0.25 0.25 0.24 0.24 0.24 0.24 0.24 0.24 0.24 0.24 0.24 0.24 0.25 0.25 0.25 0.25 0.24 0.24 0.23 0.22 0.23 0.23 0.23 0.22 0.22 0.21 0.21 0.21 0.20 0.20 0.19 0.20 0.20 0.19 0.19 0.19 0.19 0.18 0.18 0.18 0.20 0.20 0.19 0.19 0.19 0.19 0.20 0.20
0.21 0.21 0.21 0.21 0.21 0.22 0.23 0.23 0.23 0.24 0.25 0.26 0.25 0.25 0.25 0.25 0.25 0.24 0.24 0.24 0.24 0.24 0.24 0.25 0.25 0.25 0.25 0.25 0.25 0.25 0.25 0.25 0.25 0.25 0.24 0.24 0.24 0.23 0.23 0.22 0.21 0.21 0.21 0.20 0.20 0.19 0.20 0.19 0.19 0.19 0.19 0.19 0.20 0.20 0.21 0.20 0.20 0.19 0.20 0.20 0.19 0.19 0.20
0.21 0.20 0.21 0.20 0.20 0.20 0.19 0.20 0.20 0.22 0.23 0.24 0.25 0.25 0.25 0.24 0.24 0.24 0.23 0.23 0.23 0.23 0.23 0.24 0.25 0.25 0.25 0.25 0.25 0.25 0.25 0.25 0.25 0.25 0.25 0.25 0.25 0.25 0.24 0.22 0.22 0.21 0.21 0.21 0.20 0.20 0.20 0.20 0.19 0.20 0.20 0.20 0.21 0.21 0.21 0.21 0.21 0.20 0.20 0.19 0.18 0.18 0.19
0.20 0.20 0.20 0.20 0.20 0.19 0.19 0.19 0.19 0.20 0.21 0.22 0.23 0.24 0.24 0.24 0.23 0.23 0.23 0.23 0.23 0.22 0.22 0.22 0.23 0.24 0.24 0.25 0.25 0.25 0.25 0.25 0.26 0.25 0.25 0.25 0.25 0.25 0.25 0.25 0.23 0.22 0.22 0.21 0.21 0.20 0.20 0.20 0.20 0.20 0.21 0.21 0.21 0.21 0.21 0.21 0.21 0.20 0.20 0.19 0.19 0.19 0.18
0.19 0.19 0.19 0.19 0.19 0.19 0.19 0.19 0.20 0.20 0.21 0.21 0.22 0.23 0.23 0.23 0.23 0.22 0.22 0.22 0.22 0.22 0.22 0.22 0.22 0.22 0.22 0.23 0.24 0.24 0.25 0.25 0.25 0.25 0.26 0.26 0.26 0.25 0.25 0.25 0.24 0.24 0.23 0.23 0.22 0.21 0.20 0.20 0.21 0.20 0.21 0.21 0.21 0.22 0.21 0.21 0.20 0.20 0.20 0.20 0.19 0.19 0.19
0.19 0.20 0.19 0.19 0.19 0.20 0.20 0.20 0.20 0.20 0.21 0.21 0.21 0.22 0.23 0.23 0.23 0.22 0.22 0.21 0.21 0.21 0.21 0.21 0.21 0.21 0.21 0.22 0.23 0.23 0.23 0.23 0.24 0.24 0.24 0.25 0.25 0.25 0.25 0.25 0.25 0.24 0.24 0.24 0.23 0.22 0.21 0.21 0.22 0.21 0.22 0.23 0.23 0.22 0.21 0.21 0.20 0.20 0.20 0.20 0.19 0.20 0.20
0.18 0.18 0.19 0.19 0.20 0.20 0.20 0.21 0.20 0.20 0.21 0.21 0.22 0.22 0.22 0.22 0.22 0.21 0.21 0.21 0.21 0.21 0.20 0.20 0.21 0.21 0.21 0.21 0.21 0.22 0.23 0.23 0.23 0.23 0.23 0.23 0.23 0.23 0.24 0.25 0.25 0.25 0.25 0.24 0.24 0.23 0.23 0.23 0.23 0.23 0.23 0.23 0.23 0.23 0.23 0.22 0.21 0.21 0.21 0.20 0.20 0.20 0.20
0.16 0.16 0.16 0.17 0.18 0.18 0.18 0.18 0.18 0.19 0.20 0.21 0.21 0.22 0.22 0.22 0.21 0.21 0.21 0.20 0.20 0.20 0.20 0.21 0.20 0.20 0.20 0.20 0.21 0.21 0.22 0.23 0.23 0.22 0.22 0.22 0.22 0.22 0.23 0.23 0.25 0.26 0.26 0.26 0.26 0.25 0.25 0.25 0.25 0.24 0.24 0.24 0.23 0.23 0.23 0.22 0.22 0.21 0.20 0.19 0.18 0.18 0.19
0.14 0.15 0.15 0.15 0.15 0.15 0.15 0.16 0.17 0.18 0.19 0.19 0.20 0.20 0.21 0.21 0.21 0.20 0.20 0.20 0.20 0.21 0.20 0.20 0.20 0.20 0.20 0.20 0.20 0.21 0.21 0.22 0.22 0.22 0.22 0.21 0.21 0.22 0.22 0.22 0.23 0.25 0.26 0.27 0.27 0.26 0.26 0.26 0.25 0.25 0.25 0.24 0.24 0.23 0.23 0.21 0.20 0.19 0.19 0.18 0.17 0.18 0.18
0.13 0.13 0.13 0.13 0.13 0.14 0.14 0.15 0.16 0.17 0.17 0.17 0.18 0.18 0.18 0.18 0.18 0.18 0.18 0.19 0.19 0.19 0.19 0.19 0.19 0.19 0.19 0.19 0.19 0.20 0.20 0.21 0.22 0.21 0.21 0.21 0.20 0.20 0.20 0.21 0.22 0.23 0.24 0.25 0.26 0.26 0.26 0.26 0.26 0.25 0.25 0.24 0.24 0.23 0.22 0.21 0.19 0.19 0.19 0.18 0.18 0.17 0.17
0.11 0.11 0.11 0.12 0.12 0.13 0.14 0.14 0.14 0.14 0.14 0.15 0.16 0.16 0.16 0.16 0.16 0.16 0.16 0.17 0.17 0.18 0.18 0.18 0.17 0.17 0.17 0.18 0.18 0.19 0.19 0.20 0.20 0.20 0.20 0.20 0.20 0.19 0.19 0.19 0.21 0.21 0.21 0.22 0.23 0.23 0.24 0.25 0.25 0.25 0.24 0.24 0.24 0.23 0.22 0.21 0.20 0.20 0.19 0.17 0.17 0.17 0.17
0.09 0.09 0.10 0.10 0.11 0.11 0.12 0.11 0.12 0.12 0.12 0.13 0.14 0.14 0.15 0.15 0.14 0.14 0.14 0.15 0.15 0.15 0.16 0.16 0.16 0.17 0.17 0.16 0.16 0.17 0.18 0.19 0.20 0.20 0.20 0.20 0.19 0.19 0.18 0.20 0.21 0.21 0.21 0.21 0.22 0.22 0.23 0.23 0.23 0.23 0.23 0.23 0.23 0.22 0.21 0.20 0.20 0.19 0.19 0.18 0.17 0.17 0.16
0.08 0.08 0.08 0.08 0.09 0.09 0.09 0.09 0.09 0.10 0.10 0.11 0.12 0.12 0.13 0.13 0.12 0.12 0.13 0.13 0.13 0.14 0.14 0.15 0.15 0.15 0.15 0.15 0.15 0.16 0.16 0.17 0.18 0.19 0.19 0.19 0.19 0.19 0.20 0.21 0.20 0.20 0.20 0.20 0.21 0.21 0.21 0.21 0.21 0.21 0.21 0.21 0.21 0.21 0.20 0.20 0.20 0.19 0.19 0.18 0.17 0.16 0.15
0.07 0.07 0.07 0.07 0.07 0.08 0.08 0.08 0.08 0.08 0.09 0.10 0.10 0.10 0.10 0.10 0.10 0.11 0.11 0.11 0.11 0.11 0.12 0.12 0.13 0.13 0.13 0.13 0.13 0.14 0.15 0.16 0.17 0.17 0.18 0.18 0.19 0.19 0.20 0.20 0.20 0.19 0.19 0.19 0.19 0.19 0.19 0.19 0.19 0.19 0.19 0.19 0.19 0.19 0.19 0.19 0.19 0.18 0.18 0.18 0.17 0.16 0.14
0.06 0.06 0.06 0.06 0.07 0.07 0.07 0.07 0.08 0.08 0.09 0.09 0.08 0.08 0.09 0.09 0.09 0.10 0.10 0.09 0.09 0.10 0.10 0.11 0.11 0.11 0.12 0.12 0.12 0.12 0.13 0.14 0.15 0.15 0.16 0.16 0.17 0.18 0.18 0.19 0.19 0.18 0.17 0.17 0.17 0.17 0.17 0.17 0.17 0.17 0.17 0.17 0.17 0.18 0.18 0.18 0.18 0.18 0.18 0.17 0.17 0.17 0.16
0.06 0.06 0.06 0.06 0.06 0.06 0.07 0.07 0.07 0.08 0.08 0.08 0.07 0.07 0.08 0.08 0.08 0.09 0.09 0.09 0.09 0.09 0.10 0.10 0.10 0.11 0.11 0.11 0.11 0.11 0.11 0.12 0.13 0.14 0.14 0.15 0.16 0.16 0.17 0.18 0.17 0.17 0.16 0.16 0.16 0.16 0.15 0.15 0.16 0.16 0.16 0.16 0.17 0.17 0.17 0.17 0.17 0.17 0.17 0.16 0.16 0.16 0.15
0.05 0.05 0.05 0.06 0.05 0.06 0.06 0.06 0.07 0.07 0.07 0.07 0.06 0.07 0.07 0.07 0.08 0.08 0.08 0.08 0.08 0.09 0.09 0.10 0.10 0.11 0.11 0.11 0.10 0.10 0.10 0.11 0.12 0.12 0.13 0.14 0.14 0.15 0.15 0.16 0.16 0.15 0.15 0.14 0.14 0.14 0.15 0.15 0.15 0.16 0.16 0.17 0.17 0.16 0.16 0.16 0.15 0.15 0.15 0.15 0.15 0.14 0.14
0.05 0.05 0.05 0.05 0.05 0.05 0.06 0.06 0.06 0.06 0.06 0.06 0.06 0.07 0.07 0.07 0.07 0.08 0.08 0.09 0.08 0.08 0.09 0.09 0.10 0.10 0.10 0.10 0.10 0.10 0.10 0.10 0.11 0.12 0.12 0.12 0.13 0.13 0.14 0.15 0.14 0.14 0.14 0.13 0.14 0.14 0.14 0.14 0.15 0.15 0.15 0.16 0.15 0.15 0.14 0.14 0.14 0.14 0.13 0.14 0.13 0.13 0.13
0.05 0.05 0.05 0.05 0.05 0.05 0.06 0.06 0.06 0.06 0.06 0.06 0.07 0.07 0.07 0.07 0.08 0.08 0.08 0.08 0.08 0.08 0.08 0.09 0.09 0.10 0.10 0.10 0.10 0.10 0.10 0.10 0.11 0.11 0.11 0.12 0.12 0.13 0.13 0.14 0.14 0.14 0.13 0.13 0.13 0.14 0.14 0.14 0.14 0.14 0.14 0.13 0.14 0.13 0.13 0.14 0.13 0.13 0.12 0.12 0.12 0.12 0.11
0.05 0.05 0.05 0.05 0.05 0.05 0.05 0.05 0.06 0.06 0.06 0.06 0.07 0.07 0.07 0.08 0.08 0.08 0.08 0.07 0.07 0.08 0.08 0.08 0.09 0.09 0.09 0.10 0.09 0.09 0.09 0.09 0.10 0.10 0.11 0.11 0.11 0.12 0.13 0.14 0.14 0.14 0.14 0.13 0.13 0.13 0.13 0.13 0.13 0.12 0.12 0.12 0.12 0.12 0.12 0.12 0.12 0.12 0.11 0.11 0.11 0.10 0.10
0.05 0.05 0.05 0.05 0.05 0.05 0.05 0.05 0.05 0.06 0.07 0.07 0.07 0.07 0.07 0.07 0.07 0.07 0.07 0.07 0.07 0.07 0.07 0.07 0.07 0.07 0.08 0.08 0.08 0.08 0.08 0.09 0.09 0.10 0.10 0.10 0.11 0.11 0.11 0.12 0.12 0.12 0.12 0.12 0.12 0.12 0.12 0.12 0.12 0.11 0.12 0.12 0.11 0.11 0.11 0.12 0.11 0.11 0.11 0.10 0.10 0.09 0.09
0.05 0.05 0.06 0.05 0.06 0.06 0.05 0.05 0.06 0.06 0.06 0.06 0.07 0.07 0.07 0.07 0.07 0.07 0.07 0.07 0.07 0.07 0.06 0.06 0.06 0.07 0.07 0.07 0.08 0.08 0.08 0.08 0.08 0.09 0.09 0.10 0.10 0.10 0.11 0.11 0.11 0.11 0.11 0.12 0.11 0.11 0.11 0.11 0.11 0.11 0.11 0.11 0.11 0.11 0.11 0.11 0.11 0.10 0.10 0.10 0.09 0.09 0.09
0.06 0.06 0.06 0.06 0.05 0.06 0.06 0.06 0.06 0.06 0.06 0.06 0.06 0.07 0.07 0.07 0.07 0.07 0.07 0.07 0.07 0.06 0.06 0.06 0.06 0.06 0.07 0.07 0.07 0.07 0.08 0.08 0.08 0.08 0.09 0.09 0.09 0.10 0.10 0.10 0.10 0.10 0.11 0.11 0.11 0.11 0.11 0.11 0.10 0.10 0.10 0.10 0.10 0.10 0.10 0.10 0.10 0.10 0.10 0.09 0.09 0.08 0.08
0.06 0.06 0.06 0.06 0.06 0.06 0.06 0.06 0.06 0.06 0.06 0.06 0.06 0.06 0.07 0.07 0.07 0.07 0.07 0.07 0.07 0.06 0.06 0.06 0.06 0.06 0.06 0.07 0.07 0.07 0.08 0.08 0.08 0.08 0.08 0.08 0.09 0.09 0.09 0.09 0.09 0.10 0.10 0.10 0.10 0.10 0.10 0.10 0.10 0.10 0.10 0.10 0.09 0.09 0.09 0.09 0.09 0.09 0.09 0.09 0.08 0.08 0.08
0.05 0.06 0.05 0.05 0.06 0.06 0.06 0.06 0.06 0.06 0.06 0.06 0.06 0.06 0.07 0.07 0.07 0.07 0.07 0.06 0.06 0.06 0.06 0.06 0.06 0.06 0.06 0.07 0.07 0.07 0.08 0.08 0.08 0.08 0.08 0.08 0.08 0.08 0.09 0.09 0.09 0.10 0.09 0.09 0.09 0.09 0.09 0.09 0.09 0.09 0.09 0.09 0.09 0.09 0.08 0.08 0.08 0.08 0.08 0.08 0.08 0.07 0.07
0.05 0.05 0.05 0.05 0.05 0.05 0.05 0.06 0.06 0.06 0.06 0.06 0.06 0.06 0.06 0.07 0.06 0.06 0.06 0.06 0.06 0.06 0.05 0.06 0.06 0.06 0.06 0.07 0.07 0.07 0.07 0.08 0.08 0.08 0.08 0.08 0.08 0.08 0.08 0.09 0.09 0.09 0.09 0.09 0.09 0.09 0.09 0.09 0.09 0.09 0.08 0.08 0.08 0.08 0.08 0.08 0.08 0.08 0.08 0.07 0.07 0.07 0.07
0.05 0.05 0.05 0.05 0.05 0.05 0.05 0.05 0.05 0.06 0.06 0.06 0.06 0.06 0.06 0.06 0.06 0.05 0.06 0.06 0.06 0.06 0.05 0.06 0.06 0.06 0.06 0.06 0.07 0.07 0.07 0.07 0.08 0.08 0.08 0.08 0.08 0.08 0.08 0.08 0.08 0.08 0.08 0.08 0.08 0.08 0.08 0.08 0.08 0.08 0.08 0.08 0.08 0.08 0.07 0.07 0.07 0.07 0.07 0.07 0.07 0.07 0.07
0.05 0.05 0.05 0.05 0.05 0.05 0.05 0.05 0.05 0.05 0.06 0.06 0.06 0.06 0.06 0.05 0.05 0.05 0.05 0.05 0.05 0.05 0.05 0.06 0.06 0.06 0.06 0.06 0.06 0.07 0.07 0.07 0.07 0.07 0.08 0.08 0.08 0.08 0.08 0.08 0.08 0.08 0.08 0.08 0.08 0.08 0.08 0.08 0.08 0.08 0.08 0.08 0.08 0.07 0.07 0.07 0.07 0.07 0.07 0.07 0.07 0.07 0.07
Wind_Speed
36 36 37 37 38 38 39 39 40 40 40 41 42 43 43 44 44 45 45 45 46 46 46 47 47 47 46 46 46 46 46 46 46 46 46 46 46 46 46 46 46 46 46 46 45 45 45 45 45 45 45 45 45 46 46 46 47 47 48 48 49 49 49
35 36 36 37 37 38 39 40 40 40 41 41 42 42 43 43 44 45 45 45 46 46 46 46 46 46 46 46 46 46 46 46 46 46 46 46 47 47 47 47 47 47 47 46 46 46 46 46 46 46 46 46 46 46 46 47 47 48 48 49 49 50 50
33 34 35 35 36 37 38 39 40 41 41 42 42 43 43 43 44 44 44 44 45 45 45 45 45 45 45 45 46 46 46 46 46 46 47 47 47 47 47 47 48 48 47 47 46 46 46 46 46 46 46 46 47 47 47 47 48 48 49 49 50 50 50
32 33 33 34 35 36 36 38 39 40 41 42 42 43 43 44 44 44 44 45 45 45 45 45 45 45 45 45 46 46 46 46 47 47 47 47 47 47 48 47 48 48 48 48 47 47 47 47 47 47 47 47 47 47 48 48 48 49 49 50 50 50 51
33 33 34 34 34 35 35 36 37 38 39 40 41 42 43 43 44 44 44 45 45 45 45 45 45 45 45 45 46 46 46 46 47 47 47 48 48 48 48 48 48 48 48 48 48 47 47 47 48 48 48 48 48 48 48 49 49 49 50 50 50 51 51
34 34 34 35 35 35 36 36 36 37 38 39 40 41 41 42 43 43 44 44 44 45 45 45 45 45 45 46 46 46 46 47 47 47 47 48 48 48 48 48 48 48 49 49 49 49 48 48 49 49 49 49 50 49 49 49 50 50 50 50 51 52 52
35 36 36 36 36 36 37 37 37 37 38 38 39 40 41 41 42 43 43 44 44 45 45 46 46 46 46 47 47 47 47 47 48 48 48 48 48 48 49 49 49 49 50 50 50 50 50 50 50 50 50 51 51 51 51 51 50 51 51 52 52 53 53
37 38 38 38 38 38 38 39 39 39 39 40 40 40 41 42 42 43 44 44 45 45 46 46 46 47 47 48 48 48 49 49 49 49 49 49 49 49 50 50 50 50 51 51 51 51 51 51 51 52 51 52 52 52 52 52 52 53 53 53 54 54 54
39 39 40 40 40 40 41 41 41 41 41 41 42 42 43 43 43 44 44 45 45 45 46 46 47 47 48 48 49 50 50 50 50 50 51 51 51 51 51 52 52 52 52 52 52 53 52 52 53 53 53 53 54 54 54 54 55 55 55 55 55 56 56
41 41 41 42 42 42 43 43 43 43 44 44 44 44 44 45 45 45 46 46 46 47 47 47 48 48 49 49 50 51 51 52 52 52 53 53 52 53 53 53 53 53 53 54 54 54 54 54 55 55 55 55 56 56 56 56 56 57 56 56 56 57 58
42 42 43 43 43 44 44 44 45 45 46 46 46 46 46 46 47 47 47 47 48 48 48 49 49 49 50 50 51 51 52 53 53 54 54 55 55 55 55 55 55 55 55 55 56 56 55 56 56 56 56 57 57 57 57 57 57 58 57 57 57 57 58
43 43 44 44 44 45 45 45 46 47 47 47 48 48 48 48 49 49 49 49 49 49 50 50 50 51 51 52 52 53 53 54 54 55 56 56 57 57 58 58 58 57 57 57 57 57 57 57 58 57 57 58 57 57 58 58 58 58 58 58 58 58 58
44 44 45 45 45 46 46 46 47 47 48 48 49 49 50 50 50 50 51 51 51 51 52 52 52 52 53 53 53 54 54 55 55 56 57 57 58 59 59 60 60 60 60 59 59 59 59 59 59 59 59 59 58 58 58 58 59 59 59 59 59 59 59
46 46 46 46 47 47 47 47 48 48 49 49 50 51 51 51 51 52 52 52 53 53 53 54 54 54 54 54 55 55 55 56 56 57 57 58 59 59 60 61 61 61 61 61 61 61 62 61 61 61 61 60 59 59 59 59 59 59 60 60 60 59 58
47 48 48 48 48 49 49 49 50 50 50 51 51 52 52 53 53 54 54 54 54 55 55 55 55 56 56 56 56 56 56 57 57 58 58 59 60 60 60 61 62 62 62 62 63 63 63 63 62 62 62 61 60 60 60 60 60 60 59 59 59 58 58
49 50 50 50 50 50 51 51 51 52 52 52 53 53 53 54 54 55 55 55 56 56 56 56 56 57 57 57 57 58 58 59 59 59 60 61 61 61 61 62 62 63 63 64 64 64 64 64 63 63 62 62 61 61 60 60 59 59 59 58 57 57 57
52 52 52 52 52 52 53 53 53 53 53 53 53 53 54 54 55 55 56 56 56 57 57 57 57 58 58 59 59 59 60 60 60 61 61 62 62 62 63 63 63 63 64 64 64 64 65 64 64 63 63 62 61 61 60 59 59 59 58 57 57 57 57
54 54 54 54 54 54 55 54 54 54 54 54 55 55 55 56 56 57 57 57 57 58 58 58 58 59 59 60 60 60 61 61 61 61 62 63 63 63 64 63 62 62 62 63 63 63 63 63 63 62 62 62 61 60 60 59 59 58 58 57 57 57 57
55 55 55 55 56 56 56 56 56 56 56 57 57 57 57 57 58 58 58 58 58 59 59 59 60 60 60 60 61 61 61 62 62 62 62 63 63 64 64 63 62 62 62 62 62 62 62 62 61 61 60 60 60 60 60 60 59 58 58 58 57 57 56
56 56 56 56 56 56 57 57 57 57 58 58 58 58 58 58 58 59 59 59 59 59 60 60 60 59 60 61 61 62 62 62 62 62 62 63 63 64 64 63 62 62 62 61 61 61 61 61 60 60 59 59 59 59 59 59 59 58 58 58 58 57 57
56 57 57 56 56 57 57 57 57 58 58 58 58 59 59 58 59 59 60 60 60 60 60 60 59 59 60 61 61 62 62 62 63 63 63 63 63 64 63 62 62 62 62 61 61 61 60 60 60 59 59 59 59 59 59 58 58 58 58 58 58 58 57
57 57 57 57 56 57 57 57 57 57 57 57 58 58 59 59 59 60 60 61 61 61 61 61 61 61 61 61 61 62 62 62 63 63 63 63 64 64 63 63 62 62 61 61 61 60 60 60 60 59 59 58 58 58 58 58 58 58 58 58 58 57 57
56 56 57 56 56 56 56 56 56 57 57 57 57 58 58 59 59 59 60 60 61 61 61 62 62 62 62 62 62 62 62 62 63 62 63 63 63 63 63 62 62 62 61 61 60 60 60 60 59 59 59 58 58 58 58 58 58 58 57 57 57 57 57
55 55 56 56 56 56 56 56 56 56 56 57 58 58 58 58 59 59 59 59 60 60 61 61 61 61 62 62 62 62 62 62 62 62 62 63 63 63 62 62 62 61 61 60 60 60 59 59 59 59 58 58 58 57 57 57 56 56 56 56 55 55 56
54 54 54 55 55 55 55 55 55 55 56 57 57 57 57 57 57 58 58 58 58 59 59 60 60 60 60 60 60 60 60 60 60 61 61 62 62 61 61 60 60 60 60 59 59 58 58 58 58 58 57 57 57 56 56 55 55 54 54 54 54 54 54
53 53 53 54 54 54 54 54 54 55 55 55 55 55 55 55 56 56 56 56 56 57 57 58 58 58 58 58 58 58 58 58 58 58 59 59 59 59 59 59 59 58 58 58 57 57 57 56 56 56 56 55 55 55 54 54 53 53 53 53 53 53 53
51 51 52 52 53 53 53 53 53 54 53 53 53 53 53 53 54 54 54 54 55 55 55 55 56 56 56 56 56 56 56 56 56 56 56 56 56 56 57 57 57 56 56 56 56 56 55 55 54 54 54 53 53 53 53 52 52 52 52 52 52 52 52
49 50 50 50 50 51 51 51 51 50 50 50 51 51 51 51 52 53 53 53 53 53 54 54 54 54 54 54 54 54 54 54 54 53 53 53 53 53 53 53 53 53 53 53 53 53 53 52 52 52 51 51 51 50 50 50 50 50 50 51 50 50 51
48 48 48 48 49 49 49 48 48 48 49 49 50 50 50 50 50 50 50 51 51 52 52 52 51 51 51 51 51 51 51 51 50 50 49 49 49 49 49 49 49 49 49 49 50 49 49 49 49 48 48 48 47 47 48 48 48 48 49 49 49 50 50
47 47 47 47 46 46 46 47 47 48 48 49 49 49 49 49 49 49 49 49 49 50 50 49 49 49 49 49 49 48 48 48 47 47 47 46 46 45 45 45 45 45 45 45 45 45 45 45 45 45 45 45 46 46 47 47 47 48 48 48 49 49 49
45 45 45 44 44 44 45 46 46 47 47 47 47 48 48 48 48 47 46 47 47 47 47 48 47 47 47 47 47 46 46 46 46 45 45 45 44 43 43 42 42 42 42 42 42 42 43 43 44 44 45 45 46 46 46 46 47 47 47 48 48 48 48
43 43 43 43 43 43 43 44 44 44 45 45 45 45 45 45 44 44 44 44 44 45 45 45 45 45 45 44 44 44 44 44 44 44 43 43 42 42 42 41 41 41 41 41 41 42 42 42 43 43 44 44 44 44 45 45 45 45 46 46 47 47 47
42 42 42 42 42 43 42 42 42 42 42 42 43 43 43 42 41 41 41 42 41 42 42 42 42 42 42 42 42 42 41 41 41 41 41 41 41 41 41 40 40 40 40 40 40 41 41 41 42 42 42 42 43 43 43 44 44 44 44 45 45 45 45
41 41 41 41 41 41 41 41 41 40 40 40 40 40 40 39 39 39 40 40 39 39 40 39 40 40 40 40 40 40 40 40 40 39 40 39 39 39 39 39 39 39 39 39 39 40 40 40 40 41 41 41 41 42 42 42 43 43 43 43 43 43 43
40 40 40 40 40 39 39 39 39 39 39 38 38 38 38 38 38 38 38 38 38 38 38 38 38 38 38 39 39 39 39 39 39 39 38 38 38 38 37 37 37 38 38 38 38 39 39 39 39 39 39 40 40 40 40 41 41 41 41 41 40 40 40
39 39 39 38 38 38 38 38 38 38 38 38 38 37 37 37 37 37 37 37 37 37 37 37 37 37 37 37 37 37 38 38 38 38 37 37 37 37 37 37 36 36 36 37 37 37 38 38 38 38 38 38 38 38 38 38 38 38 38 38 37 37 37
Wind_Direction
259 259 259 258 258 258 258 258 258 258 258 258 258 257 257 257 257 257 257 257 257 257 258 258 258 258 258 258 258 258 258 258 258 258 259 259 259 260 260 261 261 263 264 264 264 265 265 264 264 264 264 265 265 265 265 266 266 266 266 266 267 267 268
260 260 259 259 258 258 258 258 258 258 258 258 258 258 258 258 257 257 258 257 257 257 258 258 257 258 258 258 258 258 258 259 259 259 259 260 260 261 261 261 262 263 264 265 265 265 265 264 264 264 264 265 266 266 266 266 267 267 267 267 267 267 268
261 260 260 259 259 259 259 258 258 258 258 258 258 258 258 258 258 258 258 258 258 258 258 258 258 258 258 259 259 259 259 259 260 260 260 260 261 261 261 262 262 263 264 264 265 264 264 265 265 265 265 265 266 266 267 267 268 267 267 267 267 268 268
262 262 261 260 260 260 260 259 259 259 259 259 259 259 259 259 259 258 258 258 259 259 259 259 259 259 259 259 259 260 260 260 260 260 261 261 261 261 262 262 262 262 263 264 265 265 265 265 265 266 266 266 267 267 267 268 268 268 268 268 268 268 268
263 263 262 262 262 261 261 260 260 260 260 259 259 259 259 259 259 259 259 259 259 259 259 259 259 259 260 260 260 260 260 260 260 261 261 261 261 261 262 262 262 262 263 263 264 265 265 266 266 266 267 267 267 268 268 268 269 269 269 269 269 269 269
265 264 264 264 263 263 262 262 261 261 261 260 260 260 260 260 260 260 260 260 259 259 259 259 259 259 259 259 260 260 260 260 260 261 261 261 261 261 262 262 262 263 263 264 264 265 266 266 266 267 267 267 267 268 268 268 269 270 270 270 270 270 270
265 265 265 264 264 264 264 263 263 262 262 262 261 261 261 260 260 260 260 260 260 260 260 260 260 260 260 260 260 260 260 260 260 260 261 261 261 262 262 262 263 263 263 264 265 265 266 266 266 267 267 267 267 267 268 268 269 269 270 270 270 270 270
266 265 265 265 265 264 264 264 264 263 263 263 263 262 262 261 261 261 261 261 261 261 261 261 261 261 261 261 261 261 261 260 260 261 261 261 261 261 262 262 263 263 264 264 265 265 266 266 266 267 267 267 267 267 268 268 268 269 270 270 270 270 270
267 266 266 266 266 265 265 265 265 264 264 264 264 263 263 262 262 262 262 261 262 262 262 262 262 262 262 262 262 262 261 261 261 261 261 261 261 262 262 262 263 263 264 264 265 266 266 266 266 266 267 267 267 267 268 269 269 269 270 270 270 270 270
268 268 267 267 267 267 266 266 266 266 266 265 265 264 264 263 263 263 263 263 263 263 263 263 263 263 263 263 263 263 262 262 262 262 262 262 262 262 262 263 263 264 264 265 265 266 266 266 267 267 267 267 268 268 269 269 269 269 270 270 270 271 271
269 269 268 268 268 268 267 267 267 267 267 266 266 265 264 264 264 263 263 264 264 264 264 264 264 264 264 264 264 264 263 263 263 263 263 263 263 263 263 264 264 264 265 265 266 266 266 267 267 268 267 268 269 269 269 269 269 269 270 270 270 271 272
271 270 270 269 269 268 268 267 268 268 268 267 267 266 265 265 264 264 264 264 264 265 265 265 265 265 265 264 264 264 264 264 264 264 264 264 264 264 264 264 264 265 265 265 266 266 267 267 268 268 268 268 269 269 269 269 269 269 269 270 270 271 272
272 272 271 271 270 270 269 268 268 269 269 268 268 267 266 265 265 265 265 265 265 265 265 266 266 266 265 265 265 265 265 265 265 265 264 264 264 264 264 264 265 265 265 266 266 266 267 267 268 268 268 269 269 269 268 268 269 269 269 269 270 270 271
272 272 272 272 271 271 270 269 270 270 270 269 268 268 267 266 265 265 266 266 266 266 266 266 266 266 266 266 266 266 266 265 265 265 265 265 265 265 265 265 265 265 265 266 266 266 267 267 268 268 268 269 268 268 268 268 268 269 269 269 270 270 270
272 272 272 272 272 271 271 270 271 271 270 270 269 269 268 267 266 266 266 267 267 267 267 267 267 267 267 267 266 266 266 266 266 266 266 266 266 266 266 266 266 266 266 266 266 267 267 268 268 268 268 268 268 268 268 268 268 268 269 269 270 270 270
273 273 272 272 272 272 271 271 272 272 271 271 271 270 269 268 267 267 267 267 267 267 267 267 267 267 267 267 267 267 267 267 267 266 266 266 266 267 267 267 267 266 266 266 266 267 267 267 267 267 268 267 267 267 268 268 268 268 268 268 269 269 269
274 273 273 273 273 272 272 272 272 272 272 271 271 270 269 269 268 268 268 268 267 267 267 267 267 267 267 267 267 267 267 267 267 267 267 267 267 267 267 267 267 267 266 266 266 267 267 267 267 267 267 266 266 266 266 267 267 267 267 267 267 268 268
273 273 273 273 273 272 272 272 272 272 272 272 271 271 270 270 269 269 269 268 268 268 268 268 268 268 268 268 268 268 268 268 268 267 267 267 267 267 267 267 267 267 267 266 266 266 267 267 266 266 266 266 265 265 265 266 266 266 265 266 267 268 268
273 273 273 272 272 272 272 272 271 272 272 272 272 271 271 270 270 270 270 269 269 269 269 269 269 269 269 269 269 269 269 269 268 268 268 268 267 267 267 268 267 267 267 267 266 266 266 266 266 266 266 265 265 264 264 265 265 265 265 265 266 267 267
273 273 273 272 272 272 272 272 271 271 272 272 271 271 271 270 270 270 270 270 270 269 269 269 269 269 269 270 270 270 269 269 269 268 268 267 267 267 267 268 267 267 267 267 266 266 266 266 266 266 266 265 265 264 264 264 264 264 264 265 265 265 266
274 273 273 273 272 272 272 272 271 271 272 272 271 271 271 270 270 270 270 270 270 270 270 269 269 269 270 271 270 270 270 269 269 269 268 268 267 268 268 268 267 267 267 266 266 266 266 265 265 265 265 265 264 264 264 263 263 263 264 264 265 265 266
274 274 274 273 273 272 272 272 272 272 271 271 272 271 271 271 270 270 270 270 270 270 269 269 269 270 270 271 271 271 270 270 270 269 269 268 268 268 268 267 267 267 266 266 266 265 265 265 265 265 264 264 264 264 263 263 263 263 264 264 265 266 266
275 274 274 274 273 273 273 272 272 272 271 272 272 272 272 271 271 271 271 270 270 270 270 270 270 270 270 270 271 271 271 270 270 269 268 268 268 268 268 267 267 266 265 265 265 265 265 264 264 264 264 264 263 264 263 263 263 263 263 264 265 266 267
275 274 274 274 273 273 273 273 272 272 272 272 272 272 272 272 272 271 271 271 270 270 270 270 270 270 270 270 270 271 270 270 269 269 268 268 268 268 267 267 266 266 265 265 264 264 265 264 264 264 264 263 263 263 262 262 262 263 263 264 266 267 268
275 275 274 274 274 273 273 273 272 272 272 273 273 272 272 272 272 272 272 271 271 271 271 271 270 270 270 270 271 271 271 270 270 269 269 268 268 268 267 266 266 265 265 264 264 264 264 264 264 264 264 263 262 261 261 261 262 263 264 265 266 267 268
275 275 275 274 274 274 273 273 273 273 273 273 273 272 272 272 272 272 272 272 272 272 272 271 271 270 270 270 271 271 271 270 270 270 269 268 268 267 267 266 265 265 264 264 264 263 263 264 264 263 263 262 261 260 260 261 262 263 264 265 266 267 268
276 276 275 275 274 274 273 274 274 274 274 273 273 272 272 272 272 272 273 273 272 272 272 271 271 270 270 270 271 271 271 270 270 269 269 268 268 267 266 265 264 264 264 263 263 263 262 263 263 262 261 261 260 259 260 261 262 263 264 265 266 267 268
277 276 276 275 275 275 275 275 275 274 274 273 273 273 273 273 273 273 273 273 273 272 272 272 271 271 270 270 271 271 271 270 269 269 269 268 268 267 266 265 264 264 263 263 262 262 262 262 261 261 260 260 259 259 260 261 263 264 264 265 266 267 267
277 277 277 276 276 276 276 275 275 274 274 274 274 274 273 273 273 274 273 273 273 273 273 272 272 271 271 271 270 271 270 270 269 269 269 269 268 267 266 265 264 263 262 262 261 261 261 260 260 260 259 259 259 260 261 262 263 263 264 265 265 266 267
278 277 277 277 276 276 275 275 275 275 275 275 275 274 274 273 274 274 274 274 274 273 272 272 272 272 271 270 270 270 270 269 269 269 269 268 267 266 265 264 263 262 261 261 260 260 259 259 259 259 259 259 259 260 261 262 263 263 264 264 265 266 267
278 278 277 277 276 276 276 276 276 276 276 276 275 275 274 274 274 274 274 274 274 273 272 272 271 271 271 270 270 270 269 268 268 268 268 267 266 266 265 264 263 262 261 261 260 259 259 259 259 259 259 260 260 260 261 262 263 263 264 264 265 266 267
279 279 278 278 278 277 277 277 277 277 277 276 276 275 275 275 274 274 274 274 274 273 273 272 271 271 271 270 269 269 269 268 267 267 267 266 266 265 264 264 263 262 261 261 261 260 260 260 260 260 260 260 260 260 261 261 262 263 264 265 266 267 268
280 279 279 279 279 278 278 278 278 278 278 277 277 276 275 275 274 274 274 275 274 274 273 273 272 271 270 270 269 269 268 268 267 267 266 266 265 265 264 263 263 262 262 261 261 260 260 260 260 260 260 260 260 260 261 262 262 263 264 265 266 267 268
280 280 280 280 279 279 279 278 278 278 278 278 277 277 276 275 274 274 274 274 274 274 274 273 273 272 271 270 269 268 268 267 267 266 266 266 265 265 264 264 263 262 262 261 261 260 260 260 259 259 260 260 260 261 261 262 263 264 265 266 266 267 268
281 280 280 280 279 279 279 279 278 278 278 278 278 277 277 275 274 274 275 275 274 274 274 273 272 272 271 270 269 268 267 267 266 265 265 265 264 264 264 264 263 262 262 261 260 260 260 260 259 260 260 260 261 261 262 262 263 264 265 265 266 266 267
281 281 280 280 279 279 279 278 278 278 277 277 277 277 277 276 275 275 275 275 275 274 274 273 273 272 271 270 270 269 267 266 265 265 264 263 263 263 263 263 263 262 261 261 260 260 259 259 260 260 260 260 261 261 262 263 263 264 264 265 265 265 266